Aérodrome :
LOGIN :

S'inscrire | Disclaimer

   EN    FR    IT 

 










Légende :    VFR   VFR Marginal   IFR   IFR Intensif   IFR Très Intensif
Visi : 
Plafond : 
>= 8 km
>= 3000ft
5 à 8 km
1000 à 3000 ft
1500m à 5 km
500 à 1000 ft
800 à 1500m
200 à 500 ft
< 800m
< 200 ft
Symboles :   Orages  Brouillard  Fortes neiges  Fortes précipitations  Vent > 20 kt
SIGMETs :   Divers  Orages  Givrage  Turbulence  Onde Orograph.  Cendres Volcan.







- Altitude de l'aérodrome : 598 ft
- Code IATA : BQH
- Voir les cartes d'approche


EGKB - Biggin Hill

DERNIER METAR :
  • 162120Z 18009KT 2200 BR OVC003 08/08 Q1022

METARs EXPIRÉS :
  • 162050Z 18010KT 1800 BR OVC002 08/08 Q1022
  • 162020Z 19010KT 2000 BR OVC003 09/08 Q1022
  • 161950Z 18008KT 2000 BR OVC003 09/09 Q1022
  • 161920Z 18010KT 1800 BR OVC002 09/09 Q1022

Prévision TAF périmée.
Pas de NOTAMs connus pour ce terrain.



MET'MAP, la Météo Aéronautique d'un coup d'oeil ! - Copyright ORBIFLY Décembre 2007 - Disclaimer

ORBIFLY MET'MAP TEAM :

Programmation & Développement : Alexandra Zaïnal
Conception & Développement : Baudouin d'Aumeries
Co-Programmation & Développement : Marc-Olivier Méhu
Soutien technique & logistique : Manuel Goepfert

Contact : metmap@orbifly.com




SOURCES & CREDITS :

   NOAA